星链-3564 (STARLINK-3564 )

导读

STARLINK-3564是美国SpaceX公司星链星座的一员,于2022年4月21日发射升空,属于星链低轨宽带星座组网卫星。该卫星运行在近地轨道,依托星链星座的规模化部署,可为全球范围尤其是偏远缺网地区提供高速卫星互联网接入服务。卫星配备霍尔推进器,具备自主避撞能力,寿命末期会主动离轨再入大气层销毁,单星设计寿命约5-7年,是星链全球通信网络建设的重要组成部分。

基本信息
目录编号:
52302
目录名称:
STARLINK-3564
国际标识:
2022-041AT
轨道中心:
EARTH
卫星名称:
星链-3564
卫星全名:
星链-3564 (STARLINK-3564 )
卫星状态:
在轨 (已飞行1605 天)
发射日期:
2022-04-21 UTC
国别 :
美国 (US)
星等 :
--
该卫星已列入 空间交会检测服务 Space Conjunction Data Service (SCDS) ,当前飞行风险评估等级: 无高风险
轨道信息
数据来源 国际轨道数据
星历时间: 2026-09-12T11:55:47+0800
6小时前
查看轨道信息
半长轴: 6848.876km
偏心率: 0.0001113
轨道倾角: 53.160°
近地点辐角 82.850°
升交点赤经 318.617°
平近点角 277.263°
近地点: 469.976km
远地点: 471.502km
周期: 94.013分钟
每日圈数: 15.317005
详细信息
固有亮度:
5
最大亮度:
2.5
卫星平台:
Starlink v1.5
覆盖范围:
全球
运营商:
太空探索技术公司
运营商所在国:
美国
制造商(研发单位):
太空探索技术公司
制造商所在国:
美国
使用方式:
暂无
卫星简介
星链(Starlink)计划是由太空探索技术公司(SpaceX)提出的一个巨型低轨卫星互联网星座项目,计划在2019年至2024年间在太空搭建由约1.2万颗卫星组成的“星链”网络,其中1584颗将部署在地球上空550千米处的近地轨道,并从2020年开始工作。该卫星仍在工作。
2D轨道图
3D轨道图
轨道高度分析图
轨道倾角分析图
轨道综合分析图
查看轨道综合分析图
交会数据列表
事件ID 空间交会对象 最接近时刻(TCA) 交会距离 交会风险概率(CRP) 交会风险指数(CRI) 操作
CDM_260906-064005-230206-874722
2026-09-06T
06:40:14+0000
2.773 km
极远距离
1.40019E-6 低风险 0.38
CDM_260914-041805-230206-545121
2026-09-14T
04:18:07+0000
2.939 km
极远距离
1.358089E-6 低风险 0.38
CDM_260913-075105-230206-862123
2026-09-13T
07:51:28+0000
2.961 km
极远距离
1.319811E-6 低风险 0.37
CDM_260914-203605-230205-307621
2026-09-14T
20:36:13+0000
2.919 km
极远距离
1.310945E-6 低风险 0.37
CDM_260914-214905-230206-278221
2026-09-14T
21:49:31+0000
2.869 km
极远距离
1.233354E-6 低风险 0.37
CDM_260914-163605-230206-802721
2026-09-14T
16:36:26+0000
2.940 km
极远距离
1.216595E-6 低风险 0.37
CDM_260914-020305-230206-566521
2026-09-14T
02:03:04+0000
2.800 km
极远距离
8.705756E-7 极低风险 0.34
与全量物体交会距离演化趋势
与全量物体交会风险概率演化趋势